Regional Weather Roundup
Issued by NWS

Home | Current Version | Previous Version | Graphics & Text | Print | Product List | Glossary On
Versions: 1 2 3 4 5 6 7 8 9 10 11 12 13 14 15 16 17 18 19 20 21 22 23 24 25 26 27 28 29 30 31 32 33 34 35 36 37 38 39 40 41 42 43 44 45 46 47 48 49 50
000
ASUS43 KLMK 300202
RWRKY
KENTUCKY REGIONAL WEATHER ROUNDUP
NATIONAL WEATHER SERVICE LOUISVILLE KY
1000 PM EDT WED MAR 29 2017

NOTE "FAIR" INDICATES FEW OR NO CLOUDS BELOW 12,000 FEET
WITH NO SIGNIFICANT WEATHER AND/OR OBSTRUCTIONS TO VISIBILITY.

KYZ001>023-026-027-061>063-070>075-300300-
WESTERN AND SOUTH CENTRAL KENTUCKY

CITY           SKY/WX    TMP DP  RH WIND       PRES   REMARKS
PADUCAH        CLOUDY    70  57  63 E8        29.83R
HENDERSON      CLOUDY    61  52  72 E14       29.87F
OWENSBORO      CLOUDY    64  53  67 E15       29.91S
HOPKINSVILLE   CLOUDY    69  58  67 E7        29.87R
BOWLING GREEN  CLEAR     66  55  67 E8        29.92R
GLASGOW        NOT AVBL
$$

KYZ024-025-028>034-038-045-046-053-300300-
NORTH CENTRAL KENTUCKY

CITY           SKY/WX    TMP DP  RH WIND       PRES   REMARKS
LOUISVILLE/SDF MOCLDY    61  47  59 E15G21    29.99S
LOUISVILLE/LOU CLEAR     61  49  64 E10       29.99F
FORT KNOX      PTCLDY    60  51  70 E12       29.95F
$$

KYZ035>037-039>044-047>052-055>060-089>105-300300-
NORTHEAST KENTUCKY

CITY           SKY/WX    TMP DP  RH WIND       PRES   REMARKS
LEXINGTON      PTCLDY    55  47  74 NE13      30.02F
COVINGTON      PTCLDY    52  44  74 E10       30.06F
FRANKFORT      CLEAR     58  46  64 NE14      30.02S
$$

KYZ054-064>069-076>088-106>120-300300-
SOUTHEAST KENTUCKY

CITY           SKY/WX    TMP DP  RH WIND       PRES   REMARKS
JACKSON        CLEAR     55  46  71 VRB6      30.05S
LONDON         CLEAR     62  48  60 NE6       30.00S
SOMERSET       PTCLDY    63  48  59 E6        29.98F
MIDDLESBORO    CLEAR     62  52  70 CALM      30.01R
MONTICELLO     CLEAR     59  53  80 NW9       29.98F
$$




USA.gov is the U.S. government's official web portal to all federal, state and local government web resources and services.